Preview of NWS' New Version of Forecast
This preview is not operational and should not be used for support decisions.

Regional Weather Roundup (RWR)

Issued by National Weather Service (NWS)

                            
000
ASUS44 KMEG 211110
RWRTN 
TENNESSEE HOURLY STATE WEATHER ROUNDUP
NATIONAL WEATHER SERVICE MEMPHIS TN
600 AM CDT SUN APR 21 2019

TNZ002-004-019-021-049-052-054-088>092-211200-
WEST TENNESSEE
  
CITY           SKY/WX    TMP DP  RH WIND       PRES   REMARKS
MEMPHIS INTL   FAIR      49  42  77 S3        30.02R                  
NWS MEMPHIS      N/A     45 N/A N/A MISG        N/A                   
JACKSON        FAIR      38  37  97 S5        30.04R WCI  34          
DYERSBURG      FAIR      44  41  89 SE3       30.03R                  
SOMERVILLE     CLEAR     46  41  81 CALM      30.02R                  
COVINGTON      CLEAR     43  43 100 CALM      30.03R                  
UNION CITY     CLEAR     39  39 100 CALM      30.02R                  
BOLIVAR        CLEAR     37  37 100 CALM      30.03R                  
PARIS          CLEAR     41  34  75 CALM      30.03R                  
HUNTINGDON     CLEAR     39  37  93 CALM      30.03R                  
LEXINGTON        N/A     34  34 100 CALM      30.04R                  
SELMER         CLEAR     39  37  93 CALM      30.04R                  
SAVANNAH       CLEAR     37  37 100 CALM      30.05R                  
$$

TNZ008-025-027-028-033-062-065-066-211200-
NORTH MIDDLE TENNESSEE
  
CITY           SKY/WX    TMP DP  RH WIND       PRES   REMARKS
NASHVILLE      FAIR      36  33  89 CALM      30.05R                  
DICKSON        SUNNY     43  32  65 CALM      30.03R                  
PORTLAND       CLEAR     36  36 100 S3        30.02R                  
CLARKSVILLE    FAIR      36  33  89 CALM      30.03R                  
LEBANON        FOG       36  36 100 CALM      30.03R VSB 1/4          
SMYRNA         FOG       36  36 100 CALM      30.07R VSB 1/4          
MURFREESBORO   FOG       36  36 100 CALM      30.04R VSB 3/4          
COOKEVILLE     FOG       41  41 100 SW5       30.05R VSB 0            
LIVINGSTON     FOG       41  41 100 SW5       30.03R VSB 0            
GALLATIN       FOG       39  39 100 CALM      30.07R VSB 0            
CROSSVILLE     FOG       39  38  96 CALM      30.04R VSB 1/4          
ROCKWOOD       SUNNY     41  39  93 W6        30.02R                  
$$

TNZ061-075-076-078-094-096-097-211200-
SOUTH MIDDLE TENNESSEE
  
CITY           SKY/WX    TMP DP  RH WIND       PRES   REMARKS
LAWRENCEBURG   SUNNY     36  34  93 CALM      30.05R                  
LEWISBURG      SUNNY     32  32 100 CALM      30.05R                  
FAYETTEVILLE   CLEAR     37  37 100 CALM      30.06R                  
TULLAHOMA      CLEAR     34  32  93 CALM      30.05R                  
WINCHESTER     CLEAR     36  36 100 CALM      30.06R FOG              
MCMINNVILLE    FOG       34  34 100 CALM      30.05R VSB 1/4          
COLUMBIA       CLEAR     36  34  93 CALM      30.04R                  
SHELBYVILLE    CLEAR     34  34 100 CALM      30.06R                  
$$

TNZ017-018-042-046-047-211200-
NORTHEAST TENNESSEE
  
CITY           SKY/WX    TMP DP  RH WIND       PRES   REMARKS
TRI CITIES     CLOUDY    43  39  86 W3        30.01R                  
ELIZABETHTON   CLOUDY    43  41  93 W5        30.00R                  
GREENEVILLE    CLOUDY    43  41  93 SW5       30.01R                  
$$

TNZ012-013-036-069-073-074-211200-
CENTRAL EAST TENNESSEE
  
CITY           SKY/WX    TMP DP  RH WIND       PRES   REMARKS
KNOXVILLE      CLOUDY    46  44  93 SW6       30.03R                  
OAK RIDGE      FAIR      46  42  86 CALM      30.05R                  
DOWNTOWN KNOXV CLOUDY    48  46  93 CALM      30.04R                  
GATLINBURG     CLOUDY    46  45  93 W5        30.03R                  
MORRISTOWN     CLOUDY    45  43  93 W3        30.01R                  
JACKSBORO      CLOUDY    45  43  93 CALM      30.06R                  
$$

TNZ083-085-099-211200-
SOUTHEAST TENNESSEE
  
CITY           SKY/WX    TMP DP  RH WIND       PRES   REMARKS
CHATTANOOGA    FOG       43  41  93 SW3       30.06R VSB 1/4          
DAYTON         MOSUNNY   43  43 100 CALM      30.06R                  
$$

SKY/WX REPORTED AS FAIR MEANS FEW OR NO CLOUDS BELOW
12 THOUSAND FEET.